GW5208 Weather Reports


Display with metric or nautical units.
time (UTC)temp
F
wind
direction
speed
MPH
gust
MPH
rain 1hr
in
rain 24hr
in
rain mn
in
humidity
%
barometer
mb
20260906093016 55 77 0.0 0.0 0.00 0.43 0.07 91 1020.5
20260906091528 54 57 0.0 0.0 0.01 0.43 0.07 91 1020.3
20260906090027 54 62 0.0 0.0 0.02 0.43 0.07 92 1020.2
20260906084531 54 54 0.0 0.0 0.03 0.43 0.07 92 1020.4
20260906083015 54 60 0.0 0.0 0.06 0.43 0.07 92 1020.8
20260906081520 54 316 0.0 0.0 0.05 0.42 0.06 92 1022.1
20260906080028 54 268 0.0 0.0 0.04 0.41 0.05 91 1022.0
20260906074504 54 330 0.0 0.0 0.03 0.40 0.04 90 1021.5
20260906073021 54 266 0.0 0.0 0.00 0.37 0.01 91 1022.5
20260906071517 54 76 0.0 0.0 0.01 0.37 0.01 90 1021.3
20260906070025 55 44 0.0 0.0 0.01 0.37 0.01 91 1021.5
20260906064531 54 287 0.0 0.0 0.02 0.37 0.01 91 1022.0
20260906063009 54 66 0.0 0.0 0.19 0.37 0.01 91 1021.5
20260906061518 54 301 0.0 0.0 0.18 0.36 0.00 91 1022.0
20260906060030 54 321 0.0 0.0 0.18 0.36 0.00 91 1022.1
20260906054526 55 310 0.0 0.0 0.17 0.35 0.35 89 1022.3
20260906053036 55 302 0.0 0.0 0.01 0.18 0.18 89 1023.0
20260906051513 55 313 0.0 0.0 0.02 0.18 0.18 89 1021.6
20260906050023 55 28 0.0 0.0 0.02 0.18 0.18 88 1022.1
20260906044524 56 324 0.0 0.0 0.02 0.18 0.18 88 1021.9
20260906043031 56 342 0.0 0.0 0.01 0.17 0.17 85 1021.6
20260906041532 56 359 0.0 0.0 0.01 0.16 0.16 85 1021.9
20260906040018 57 21 0.0 0.0 0.06 0.16 0.16 83 1021.0
20260906034527 57 345 0.0 0.0 0.07 0.16 0.16 82 1021.3
20260906033030 57 286 0.0 0.0 0.07 0.16 0.16 83 1021.3
20260906031533 57 102 0.0 0.0 0.06 0.15 0.15 83 1019.7
20260906030038 60 257 0.0 0.0 0.01 0.10 0.10 78 1022.6
20260906024521 61 334 0.0 0.0 0.00 0.09 0.09 68 1021.2
20260906023025 62 1 0.0 0.0 0.00 0.09 0.09 67 1020.0
20260906021532 62 322 0.0 0.0 0.00 0.09 0.09 65 1019.3
20260906020043 62 66 0.0 0.0 0.00 0.09 0.09 65 1019.6
20260906014522 63 56 0.0 0.0 0.00 0.09 0.09 63 1019.7
20260906013029 64 54 0.0 0.0 0.00 0.09 0.09 62 1019.7
20260906011506 64 52 0.0 0.0 0.00 0.09 0.09 60 1019.7
20260906010010 65 65 0.0 0.0 0.00 0.09 0.09 60 1019.5
20260906004518 66 49 0.0 0.0 0.00 0.09 0.09 58 1019.5
20260906003021 66 30 0.0 0.0 0.00 0.09 0.09 55 1019.4
20260906001502 67 311 0.0 0.0 0.00 0.09 0.09 54 1019.7
20260906000008 69 28 0.0 0.0 0.00 0.09 0.09 51 1019.8
20260905234515 69 57 0.0 0.0 0.00 0.09 0.09 52 1019.6
20260905233033 69 232 0.0 0.0 0.00 0.09 0.09 51 1019.9
20260905231533 69 7 0.0 0.0 0.00 0.09 0.09 51 1019.9
20260905230008 69 310 0.0 0.0 0.00 0.09 0.09 53 1019.9
20260905224513 70 319 0.0 0.0 0.00 0.09 0.09 53 1019.9
20260905223019 70 184 0.0 0.0 0.00 0.09 0.09 51 1019.9
20260905221507 70 307 0.0 0.0 0.00 0.09 0.09 52 1020.1
20260905220003 69 357 0.0 0.0 0.00 0.09 0.09 52 1020.2
20260905214504 70 332 0.0 0.0 0.00 0.09 0.09 51 1020.3
20260905213004 70 286 0.0 0.0 0.00 0.09 0.09 49 1020.3
20260905211515 70 317 0.0 0.0 0.00 0.09 0.09 50 1020.2
20260905210005 68 290 0.0 0.0 0.00 0.09 0.09 55 1020.3
20260905204507 69 60 0.0 0.0 0.00 0.09 0.09 51 1020.4
20260905203007 69 323 0.0 0.0 0.00 0.09 0.09 53 1020.5
20260905201507 68 359 0.0 0.0 0.00 0.09 0.09 57 1020.6
20260905200012 67 167 0.0 0.0 0.00 0.09 0.09 57 1020.5
20260905194506 67 213 0.0 0.0 0.00 0.09 0.09 59 1020.5
20260905193010 65 276 0.0 0.0 0.00 0.09 0.09 63 1020.6
20260905191509 64 207 0.0 0.0 0.00 0.09 0.09 65 1020.8
20260905190010 63 167 0.0 0.0 0.00 0.09 0.09 73 1020.8
20260905184514 62 183 0.0 0.0 0.00 0.09 0.09 74 1020.9
20260905183009 60 243 0.0 0.0 0.00 0.09 0.09 80 1021.3
20260905181515 59 200 0.0 0.0 0.00 0.09 0.09 78 1021.5
20260905180011 59 200 0.0 0.0 0.00 0.09 0.09 79 1021.4
20260905174512 58 199 0.0 0.0 0.00 0.09 0.09 78 1021.5
20260905173008 58 191 0.0 0.0 0.00 0.09 0.09 82 1021.5
20260905171529 57 172 0.0 0.0 0.00 0.09 0.09 85 1021.5
20260905170016 56 160 0.0 0.0 0.00 0.09 0.09 88 1021.5
20260905164522 55 29 0.0 0.0 0.00 0.09 0.09 89 1021.1
20260905163013 54 203 0.0 0.0 0.00 0.09 0.09 90 1020.9
20260905161513 53 203 0.0 0.0 0.01 0.09 0.09 91 1021.1
20260905160025 53 203 0.0 0.0 0.01 0.09 0.09 92 1021.3
20260905154518 53 220 0.0 0.0 0.01 0.09 0.09 92 1021.2
20260905153021 52 198 0.0 0.0 0.01 0.09 0.09 92 1021.3
20260905151519 52 63 0.0 0.0 0.01 0.08 0.08 91 1021.1
20260905150016 52 63 0.0 0.0 0.02 0.08 0.08 91 1020.9
20260905144521 52 70 0.0 0.0 0.02 0.08 0.08 91 1020.6
20260905143021 52 329 0.0 0.0 0.02 0.08 0.08 91 1020.4
20260905141521 51 346 0.0 0.0 0.02 0.07 0.07 90 1020.4
20260905140024 51 329 0.0 0.0 0.04 0.06 0.06 89 1020.2
20260905134528 51 335 0.0 0.0 0.06 0.06 0.06 88 1020.5
20260905133024 51 338 0.0 0.0 0.06 0.06 0.06 87 1020.8
20260905131523 52 295 0.0 0.0 0.05 0.05 0.05 86 1021.2
20260905130014 52 256 0.0 0.0 0.02 0.02 0.02 85 1021.2
20260905124521 52 283 0.0 0.0 0.00 0.00 0.00 83 1020.8
20260905123029 53 299 0.0 0.0 0.00 0.00 0.00 83 1020.0
20260905121525 53 296 0.0 0.0 0.00 0.00 0.00 82 1019.5
20260905120030 53 254 0.0 0.0 0.00 0.00 0.00 81 1019.9
20260905114516 54 264 0.0 0.0 0.00 0.00 0.00 77 1019.8
20260905113026 55 264 0.0 0.0 0.00 0.00 0.00 72 1019.7
20260905111531 55 293 0.0 0.0 0.00 0.00 0.00 72 1019.7
20260905110028 55 274 0.0 0.0 0.00 0.00 0.00 73 1019.3
20260905104528 54 274 0.0 0.0 0.00 0.00 0.00 75 1019.4
20260905103032 54 276 0.0 0.0 0.00 0.00 0.00 77 1019.2
20260905101530 54 274 0.0 0.0 0.00 0.00 0.00 75 1018.6
20260905100035 53 268 0.0 0.0 0.00 0.00 0.00 77 1019.0
20260905094530 52 263 0.0 0.0 0.00 0.00 0.00 77 1018.9